1st Responders/1st Detectors/Storm Spotters Weather Summary for Crittenden County, KY

Forecast Maps


Reg. NEXRAD Animation


National Fire Danger: Day 1 & 2 Map

Current NWS Watch/Warnings

SPC Convective Day 1 Outlook


Day 2 Outlook

(Click images to enlarge|Page will refresh every 5 minutes)
UK Ag. Weather Center Desktop Severe Weather Service[HERE]
Crittenden County, KY Hazardous Weather Outlook Webcast
(9 AM to 9 PM Mon-Fri)
[Fast]
[Dial-up]


UKAWC 1st Detectors/1st Responders Precision Weather Forecast For CRITTENDEN County, Kentucky
(based on the NWS County Digital Forecast)

ISSUED AT 06:00 UTC ON SUNDAY DEC 17 2017
DAY SUNDAY
CDT 3HR 2A 3A 4A 5A 6A 7A 8A 9A 10A 11A NOON 1P 2P 3P 4P 5P 6P
MAX/MIN -- -- -- -- -- 38° -- -- -- -- -- -- -- -- -- -- 49°
TEMP 38° 38° 38° 38° 38° 38° 38° 38° 38° 40° 41° 43° 47° 47° 49° 47° 45°
SKY COVER 71% 76% 85% 93% 93% 99% 99% 99% 100% 100% 100% 100% 98% 97% 95% 93% 92%
Clouds
DEW PT 31° 31° 31° 31° 31° 32° 34° 34° 36° 36° 38° 38° 38° 40° 40° 40° 40°
RH 79% 78% 75% 75% 75% 78% 85% 89% 92% 88% 85% 82% 73% 73% 71% 74% 83%
POP 12HR -- -- -- -- -- 27% -- -- -- -- -- -- -- -- -- -- --
RAIN/SNOW (liq.equ) -- -- -- -- -- 0.01in -- -- -- -- -- 0.10in -- -- -- -- --
SNOWFALL -- -- -- -- -- 0in -- -- -- -- -- 0in -- -- -- -- --
WIND SPEED(MPH) 6 6 6 6 7 7 7 7 7 7 7 7 7 7 6 6 5
WIND Gust(MPH) 7 7 7 7 8 9 8 10 10 9 9 10 8 8 7 7 6
WIND DIR S S S S S SW S S S S S S S S S S S
DEW Frost Frost Frost -- -- -- -- -- -- -- -- -- -- -- -- -- --
HeatIndex 33 33 34 34 34 34 32 32 32 34 36 39 47 47 49 47 45
Snow -- -- -- -- -- -- -- -- -- -- -- -- -- -- -- -- --
Snow Showers -- -- -- -- -- -- -- -- -- -- -- -- -- -- -- -- --
Rain -- -- -- -- -- -- -- -- -- -- -- -- -- -- -- -- --
Rain Showers -- -- -- -- Chance Chance Definite Definite Likely Likely Chance Slight Chance Slight Chance Slight Chance Slight Chance -- --
WIND CHILL 34° 34° 34° 34° 33° 33° 33° 33° 33° 35° 36° 39° -- -- -- -- 43°
SPRAY COND
DRY COND
LIVESTOCK COLDSTRESS



DAY MONDAY TUESDAY WEDNESDAY THURSDAY FRIDAY SATURDAY
CDT 6HR 7P 8P 9P 10P 11P MIDN 1A 2A 3A 4A 5A 6A 7A 8A 9A 10A 11A NOON 1P 4P 7P 10P 1A 4A 7A 10A 1P 4P 7P 1A 7A 1P 7P 1A 7A 1P 7P 1A 7A 1P 7P 1A 7A 1P 7P
MAX/MIN -- -- -- -- -- -- -- -- -- -- -- -- 40° -- -- -- -- -- -- 56° -- -- -- -- 45° -- -- 56° -- -- 36° 50° -- -- 36° 54° -- -- 38° 45° -- -- 27° 38° --
TEMP 43° 41° 41° 41° 41° 41° 41° 41° 41° 41° 40° 40° 40° 40° 41° 43° 47° 49° 52° 56° 50° 49° 49° 45° 45° 50° 52° 56° 49° 40° 38° 49° 45° 40° 38° 54° 49° 45° 38° 45° 38° 31° 29° 38° 34°
SKY COVER 90% 89% 88% 87% 86% 85% 84% 85% 85% 86% 87% 87% 88% 88% 88% 88% 88% 88% 88% 75% 63% 56% 49% 57% 62% 58% 55% 46% 37% 29% 34% 40% 31% 24% 35% 41% 46% 71% 76% 66% 62% 60% 66% 62% 65%
Clouds
DEW PT 40° 40° 40° 40° 40° 40° 40° 40° 41° 41° 40° 40° 40° 40° 41° 43° 43° 43° 43° 43° 43° 41° 43° 43° 41° 41° 41° 40° 38° 32° 31° 31° 31° 31° 31° 36° 38° 38° 34° 27° 25° 20° 22° 20° 20°
RH 89% 96% 96% 95% 95% 96% 96% 96% 99% 99% 100% 99% 99% 99% 99% 96% 89% 82% 74% 61% 73% 73% 79% 89% 89% 71% 66% 52% 65% 75% 76% 49% 59% 67% 78% 52% 65% 78% 88% 48% 56% 65% 77% 49% 56%
POP 12HR 81% -- -- -- -- -- -- -- -- -- -- -- 11% -- -- -- -- -- -- -- 8% -- -- -- 5% -- -- -- 14% -- 6% -- 22% -- 5% -- 4% -- 31% -- 20% -- 25% -- 23%
RAIN/SNOW (liq.equ) 0.01in -- -- -- -- -- 0.00in -- -- -- -- -- 0.00in -- -- -- -- -- 0.00in -- 0.00in -- 0.00in -- 0.00in -- 0.00in -- 0.00in -- -- -- -- -- -- -- -- -- -- -- -- -- -- -- --
SNOWFALL 0in -- -- -- -- -- 0in -- -- -- -- -- 0in -- -- -- -- -- 0in -- 0in -- 0in -- 0in -- 0in -- 0in -- -- -- -- -- -- -- -- -- -- -- -- -- -- -- --
WIND SPEED(MPH) 5 5 5 5 5 5 5 5 5 5 5 5 5 6 6 7 7 8 8 7 6 7 7 6 6 7 7 7 5 5 6 7 6 6 7 8 8 9 9 13 9 7 8 7 7
WIND DIR S S S S S S S S SW SW SW SW SW SW SW SW SW SW SW SW SW SW SW SW SW W W W NW N NE E E SE SE S S SW W NW NW N N N NE
HeatIndex 41 39 39 39 39 39 39 39 39 39 38 36 36 37 38 40 47 49 52 56 50 49 49 45 41 50 52 56 49 36 33 49 41 37 32 54 49 39 31 45 32 23 20 32 28
Snow -- -- -- -- -- -- -- -- -- -- -- -- -- -- -- -- -- -- -- -- -- -- -- -- -- -- -- -- -- -- -- -- -- -- -- -- -- -- -- -- -- Slight Chance Slight Chance -- --
Snow Showers -- -- -- -- -- -- -- -- -- -- -- -- -- -- -- -- -- -- -- -- -- -- -- -- -- -- -- -- -- -- -- -- -- -- -- -- -- -- -- -- -- -- -- -- Chance
Rain -- -- -- -- -- -- -- -- -- -- -- -- -- -- -- -- -- -- -- -- -- -- -- -- -- -- -- -- -- -- -- -- -- -- -- -- -- Chance Slight Chance Slight Chance Chance -- -- Slight Chance --
Rain Showers -- -- -- -- -- -- -- -- -- -- -- -- -- -- -- -- -- -- -- -- -- -- -- -- -- -- -- -- -- -- Slight Chance Slight Chance -- -- -- -- -- -- -- -- -- -- -- -- Chance
WIND CHILL 40° 38° 38° 38° 38° 38° 38° 38° 38° 38° 37° 37° 37° 36° 37° 39° -- -- -- -- -- -- -- 42° 42° -- -- -- -- 37° 34° -- 42° 36° 33° -- -- 40° 32° 39° 32° 25° 21° 33° 28°
SPRAY COND
DRY COND
LIVESTOCK COLDSTRESS

Click on individual weather variable above in left-hand column (ie., TEMP, RH, QPF 12HR) to view state forecast maps






NWS 48 Hr. Forecast Maps,

Regional Hourly Observations For CRITTENDEN County, Kentucky
Issued at 100 AM EST SUN DEC 17 2017
WESTERN AND SOUTH CENTRAL KENTUCKY
  
CITY           SKY/WX    TMP DP  RH WIND       PRES   REMARKS
PADUCAH        CLOUDY    42  29  59 S6        30.15F                  
HENDERSON      CLOUDY    40  31  70 S8        30.17S WCI  34          
OWENSBORO      PTCLDY    38  30  73 S5        30.19F WCI  34          
HOPKINSVILLE   PTCLDY    43  28  56 S6        30.19F                  
BOWLING GREEN  PTCLDY    41  31  67 S3        30.22F                  
GLASGOW        CLOUDY    41  30  65 S3        30.21F                  


Current NOWCAST not available:
Nowcasts are not issued routinely during fair weather. Only when
precipitation or other significant weather is occuring in this county will these
forecasts be issued. Currently, there is no short term forecast in effect.


Fire Weather Forecast For CRITTENDEN County, KY
Provided by the National Weather Service:

Issued at: Sun Dec 17 01:05:02 EST 2017

Precip Type           NONE         rain         NONE         NONE         
Chance Precip (%)     0            80           0            0            
High Temperature(F)                45-49                     54-58        
Minimum RH(%)                      67-72                     57-62        
Low Temperature(F)    34-38                     38-42                     
Maximum RH(%)         83-88                     95-100                    
Temp (24h Trend)      35 (+5)      48 (-3)      39           58           
RH % (24h Trend)      86 (-2)      70 (+26)     100          60           
20FTWND-AM(MPH)                    S 4-8                     SW 3-7       
20FTWND-PM(MPH)       S 4-8        S 4-8        Lgt/Var      SW 5-9       
Precip Amount         0.00         0.11         0.00         0.00         
Precip Duration                    7                                      
Precip Begin                       6 AM                                   
Precip End                         6 PM                                   
1700'Mix Hgt Temp                  48                        55           
Mixing Hgt(FT-AGL)                 2734                      3837         
Transport Wind (KTS)               SW 14                     SW 19        
Transport Wind (M/S)               SW  7                     SW 10        
Vent Rate (M/S-M)                  5831                      11700        
Dispersion Index                   Fair                      Good         
LAL                   1            1            1            1            
Haines Index          4            2            2            3            
Stability(DSI)        STBL         STBL         STBL         STBL         

Remarks...None.

.Forecast for days 3 through 7...

.MONDAY NIGHT...Mostly cloudy. Lows in the mid 40s. Southwest
winds 5 to 10 mph. 
.TUESDAY...Partly sunny. Highs in the upper 50s. West winds 5 to
10 mph. 
.TUESDAY NIGHT...Partly cloudy. Lows in the upper 30s. North
winds 5 to 10 mph. 
.WEDNESDAY...Partly sunny with a 20 percent chance of rain. Highs
in the lower 50s. East winds 5 to 10 mph. 
.WEDNESDAY NIGHT...Partly cloudy. Lows in the upper 30s.
Southeast winds 5 to 10 mph. 
.THURSDAY...Mostly sunny. Highs in the mid 50s. South winds 5 to
10 mph. 
.THURSDAY NIGHT...Mostly cloudy with a 40 percent chance of rain.
Lows in the upper 30s. Southwest winds 5 to 15 mph. 
.FRIDAY...Mostly cloudy with a 20 percent chance of rain. Highs
in the upper 40s. Northwest winds 5 to 15 mph. 
.FRIDAY NIGHT...Mostly cloudy with a 50 percent chance of snow
and rain. Lows around 30. North winds 5 to 15 mph. 
.SATURDAY...Partly sunny with a 50 percent chance of rain and
snow. Highs around 40. North winds 5 to 10 mph. 

SPC's Fire Weather Web Tool (Excellent!), SPC's Fire Weather Outlooks, NWS Fire Weather WEB, Fire Danger Class Map,
Keetch-Byram Drought Index, ROMAN Web, Haines Index ,
WFAS's 10-hr Dead Fuel Moist., WFAS's 100-hr Dead Fuel Moist., Probablity of Ignition, Visual blackness Map, Palmer Drought Index, HPC's Rainfall Forecast Maps


Hazardous Weather Outlook For CRITTENDEN County, Kentucky
335 AM CST Sat Dec 16 2017

 DAY ONE  Today and Tonight

No hazardous weather is expected at this time.

 DAYS TWO THROUGH SEVEN  Sunday through Friday

No hazardous weather is expected at this time.

 SPOTTER INFORMATION STATEMENT  

Spotter activation is not anticipated.

Latest CRITTENDEN County, Kentucky Watches, Warnings and Advisories.
Additional Drought Info.: UKAWC Drought Page, Kentucky Drought Watch


7-Day Forecast For CRITTENDEN County, KY

TONIGHT
Partly cloudy in the evening, then cloudy with a 30 percent chance of rain after midnight. Lows in the upper 30s. South winds around 5 mph.

SUNDAY
Cloudy. Rain in the morning, then a chance of rain in the afternoon. Highs in the upper 40s. South winds around 5 mph. Chance of precipitation 80 percent.

SUNDAY NIGHT
Mostly cloudy. Lows around 40. South winds around 5 mph.

MONDAY
Mostly cloudy. Highs in the mid 50s. Southwest winds 5 to 10 mph.

MONDAY NIGHT
Partly cloudy. Lows in the mid 40s. Southwest winds 5 to 10 mph.

TUESDAY
Partly sunny. Highs in the upper 50s.

TUESDAY NIGHT
Mostly clear. Lows in the mid 30s.

WEDNESDAY
Partly sunny with a 20 percent chance of rain. Highs in the lower 50s.

WEDNESDAY NIGHT
Mostly clear. Lows in the mid 30s.

THURSDAY
Partly sunny. Highs in the mid 50s.

THURSDAY NIGHT
Mostly cloudy. A 30 percent chance of rain after midnight. Lows in the upper 30s.

FRIDAY
Partly sunny with a 20 percent chance of rain. Highs in the mid 40s.

FRIDAY NIGHT
Mostly cloudy. A chance of rain and snow in the evening, then a slight chance of snow after midnight. Lows in the upper 20s. Chance of precipitation 30 percent.

SATURDAY
Partly sunny. A slight chance of rain and snow in the morning, then a chance of rain in the afternoon. Highs in the upper 30s. Chance of precipitation 30 percent.

Ag Weather Center, Department of Biosystems & Agricultural Engineering, University of Kentucky